User: anonymous   Login
Location: Unspecified
(0.0000°N, 0.0000°E)
Time: 06:29:53
(UTC+00:00)
Language:

MUOS 2 - Orbit

View from above orbital plane
View from above orbital plane
View from above satellite
View from above satellite

Ground track
Ground track

The orbit data is extracted from the following two-line orbital elements,

1 39206U 13036A   20054.55237205 +.00000053 +00000-0 +00000-0 0  9991
2 39206 002.6890 353.1788 0051480 182.1318 359.3654 01.00271707024088
Epoch (UTC): 23 February 2020 13:15:24
Eccentricity: 0.0051480
inclination: 2.6890°
perigee height: 35569 km
apogee height: 36003 km
right ascension of ascending node: 353.1788°
argument of perigee: 182.1318°
revolutions per day: 1.00271707
mean anomaly at epoch: 359.3654°
orbit number at epoch: 2408

The dashed part of the orbit path shows where the satellite is in the earth's shadow,  

DLR